SCP
0 0 0 0 0 0 0 1 1 1 1 1 2 6 9 9 8 7 5 5 5 4 4 4 5 5 5 5 5 5 6 7 7 7 7 6 6 6 6 5 5 5 5 5
0 0 0 0 0 0 0 1 1 1 1 1 3 6 8 9 8 6 5 5 5 4 4 4 4 4 4 4 5 6 6 6 6 7 7 6 5 5 5 5 5 4 4 5
0 0 0 0 0 0 1 1 1 1 1 1 2 4 7 8 7 6 5 5 5 5 4 4 4 4 3 4 6 6 5 5 5 6 6 6 5 5 5 4 4 4 4 4
0 0 0 0 0 0 0 0 1 1 1 1 1 3 5 6 6 5 5 5 5 5 4 4 3 3 3 4 5 5 5 4 5 5 6 6 5 5 4 4 4 4 3 3
0 0 0 0 0 0 0 1 1 1 1 1 1 2 4 5 5 4 4 4 4 4 3 3 3 3 3 3 4 4 4 4 4 5 6 5 5 4 3 3 3 3 3 3
0 0 0 0 0 0 0 1 1 1 1 1 1 2 3 4 4 4 3 3 3 3 2 3 3 3 3 3 3 4 4 4 4 4 4 4 4 3 2 2 2 2 2 2
0 0 0 0 0 0 0 1 1 1 1 1 1 2 3 3 4 3 3 3 4 3 2 2 3 4 4 3 3 4 4 4 3 3 3 3 3 2 2 2 2 2 3 3
0 0 0 0 0 0 0 1 1 0 0 1 1 2 3 3 3 3 3 3 4 3 2 2 3 5 5 4 4 4 5 4 3 3 3 3 3 2 2 3 3 3 4 4
0 0 0 0 0 0 0 1 0 0 0 1 1 2 3 3 2 2 2 3 3 3 2 2 2 4 6 5 4 5 6 6 4 3 3 2 2 2 2 2 3 3 4 4
0 0 0 0 0 0 0 0 0 0 0 0 1 2 2 2 2 1 2 2 3 3 2 2 2 4 6 6 5 5 7 6 5 3 2 2 2 1 1 1 2 2 3 3
0 0 0 0 0 0 0 0 0 1 1 1 1 1 2 2 2 1 1 2 3 2 2 2 3 4 6 6 5 5 5 5 4 3 2 2 2 2 1 1 1 2 2 2
0 0 0 0 0 0 0 0 0 1 1 1 1 1 2 2 1 1 1 2 2 2 2 3 4 5 6 5 4 4 4 3 3 2 2 2 2 2 2 1 1 2 3 3
0 0 0 0 0 0 0 0 0 1 1 1 1 1 2 2 1 1 1 1 2 2 2 3 4 5 5 4 4 3 3 2 2 2 2 2 2 2 2 2 1 2 2 3
0 0 0 0 0 0 0 0 0 1 1 1 1 1 2 2 1 1 1 1 1 2 2 2 3 4 4 3 3 2 2 2 1 1 1 2 2 2 2 2 1 1 1 2
0 0 0 0 0 0 0 0 0 1 1 1 1 1 2 2 1 1 1 1 1 1 1 2 2 2 2 2 2 1 1 1 1 1 1 1 2 2 2 2 1 1 1 1
1 1 1 0 0 0 0 1 1 1 1 1 1 1 2 1 1 1 1 1 1 1 1 1 1 1 1 1 1 1 1 1 1 1 1 1 1 1 1 1 1 1 1 1
1 1 1 0 0 0 1 1 1 1 1 1 1 2 2 1 1 1 1 1 1 1 1 1 1 1 1 1 1 1 1 1 1 1 1 1 1 1 1 1 1 1 1 2
1 1 1 0 0 0 0 0 0 0 1 1 1 2 2 1 1 1 1 1 1 1 1 1 1 1 1 1 1 1 1 1 1 0 0 0 1 1 1 1 1 1 2 2
2 2 2 1 0 0 0 0 0 0 1 1 1 1 1 1 1 1 1 1 1 1 1 1 1 1 1 1 1 1 1 1 1 1 0 0 1 1 1 1 2 2 2 2
2 2 2 1 1 0 0 0 0 0 1 1 1 1 1 1 1 1 1 1 1 1 1 1 1 1 1 1 1 1 1 1 1 1 1 1 1 1 1 2 2 2 2 2
1 2 2 2 1 1 1 0 0 1 1 1 1 2 2 1 1 1 1 1 1 1 1 1 1 1 2 1 1 1 2 2 1 1 1 1 1 1 1 2 2 2 2 2
1 2 2 2 2 1 1 1 1 2 2 2 2 2 2 2 2 1 1 1 1 1 1 1 1 1 1 1 1 2 2 2 2 1 1 1 1 1 1 1 2 2 2 2
1 2 2 3 2 2 1 1 1 2 1 2 2 2 2 2 2 2 1 1 1 1 1 1 1 1 1 1 1 1 1 1 1 1 1 1 2 1 1 1 1 2 1 1
1 2 2 2 2 2 1 1 1 1 1 1 2 1 1 2 2 2 2 1 1 1 1 1 1 1 1 1 1 1 1 1 1 1 1 1 1 1 1 1 1 1 1 1
1 1 1 2 2 1 1 1 0 1 1 1 1 1 1 1 2 2 2 1 1 1 1 1 1 1 1 1 1 1 1 1 1 1 1 1 1 1 1 1 1 1 1 1
1 1 1 1 2 1 1 1 1 1 1 1 1 1 1 1 1 1 2 2 1 1 1 1 1 1 1 1 1 1 1 1 1 1 1 1 1 1 1 1 1 1 0 0
Wind_Speed
8 7 5 5 5 6 8 7 6 4 2 3 2 4 4 6 6 7 6 6 6 5 5 5 5 4 5 4 2 2 2 2 1 1 2 2 2 2 2 1 1 1 2 2
7 6 7 5 4 5 8 9 8 4 2 2 2 4 4 6 6 6 6 5 6 5 5 5 4 3 3 3 3 2 2 1 1 1 2 1 2 3 2 2 1 1 2 2
6 4 3 5 6 5 8 8 7 6 5 6 5 4 4 6 7 6 5 6 5 5 4 4 4 4 2 1 1 2 2 1 1 2 1 2 1 2 2 2 2 2 2 2
7 4 4 6 7 6 7 5 6 7 8 7 7 4 3 6 6 6 5 5 4 4 4 3 3 2 2 1 2 2 1 1 1 2 2 3 2 3 3 2 2 2 2 3
6 3 5 7 5 5 8 8 9 11 9 9 7 3 2 4 4 3 4 4 4 4 3 2 2 1 2 1 2 2 1 1 1 1 2 2 2 2 2 3 3 3 3 3
6 3 4 6 6 6 7 8 12 10 7 7 6 4 3 4 5 3 4 5 4 3 3 3 2 2 2 2 2 2 2 1 1 1 1 1 2 3 3 3 3 3 2 2
6 6 4 2 6 5 6 7 6 6 4 4 4 2 4 5 5 4 5 5 5 4 4 3 2 3 3 2 2 2 1 0 1 1 1 1 3 3 3 3 3 3 2 1
6 4 1 1 4 6 6 7 6 6 6 6 5 1 6 6 7 8 7 6 5 4 4 4 3 3 2 2 2 2 0 1 1 1 1 1 2 3 2 3 3 3 2 2
6 5 1 2 5 6 6 7 7 7 8 6 1 5 7 7 8 7 6 5 5 5 5 4 4 4 2 2 2 2 1 1 1 1 1 2 2 3 3 3 3 2 2 3
6 8 7 2 4 6 6 7 5 5 6 6 2 2 3 3 5 5 4 5 5 5 4 4 4 4 3 2 2 2 1 1 1 1 1 2 2 3 3 3 3 2 3 3
6 6 8 5 4 5 5 5 5 6 5 6 5 2 5 5 4 4 4 5 5 4 4 4 5 4 4 3 2 2 2 1 1 1 1 2 2 2 3 2 2 2 2 2
4 5 8 7 4 4 5 6 5 5 6 6 5 2 6 6 5 4 5 5 5 5 5 5 5 4 4 5 4 3 3 2 2 2 1 2 3 2 2 2 2 2 3 3
5 4 6 5 2 3 4 5 6 4 4 4 5 2 6 5 6 5 5 5 5 5 5 5 5 4 4 4 4 4 3 3 3 3 2 2 2 2 2 2 2 2 2 3
3 5 7 9 7 7 6 7 6 5 4 4 4 2 4 4 4 5 4 3 4 3 3 4 4 4 4 4 5 4 3 3 3 3 3 2 2 2 2 2 2 2 3 2
3 7 9 10 11 9 8 8 6 6 6 6 5 4 4 3 4 3 2 2 3 3 4 5 5 4 4 4 4 4 4 4 3 3 3 3 2 2 2 2 2 2 2 3
3 6 9 11 11 8 8 7 6 6 6 5 4 2 4 4 4 3 2 3 3 4 5 5 5 4 4 4 4 4 4 3 3 2 2 2 2 2 2 2 2 2 2 2
5 6 8 10 9 9 7 4 3 4 4 4 4 4 4 3 3 3 3 4 4 4 5 5 5 4 4 4 4 4 4 2 2 2 2 1 1 2 2 3 3 2 2 2
6 6 6 9 8 9 1 3 2 3 4 4 3 3 3 3 3 2 4 4 4 4 5 5 4 4 3 3 3 3 4 3 2 3 3 2 1 2 2 3 3 3 2 2
5 6 6 6 8 6 3 1 2 2 2 5 4 5 5 5 2 3 4 3 3 4 4 3 3 3 3 3 4 3 4 3 3 3 3 4 3 2 2 2 3 2 2 2
6 5 6 7 8 6 1 3 3 1 1 4 4 4 5 4 3 2 3 3 3 3 3 2 2 2 2 2 3 4 4 4 4 4 3 3 3 2 1 2 2 2 2 1
7 7 8 9 8 3 3 4 3 2 2 5 4 4 4 3 3 1 1 2 2 3 2 2 2 2 2 2 2 3 4 4 4 4 3 3 2 2 1 1 1 2 2 2
6 6 6 7 7 2 5 4 3 3 3 3 4 4 4 3 2 2 2 2 2 2 2 2 2 2 1 1 2 3 3 3 4 3 3 2 2 3 2 1 2 2 2 2
4 3 3 3 1 3 3 3 3 2 2 2 3 4 3 4 3 2 2 2 2 2 2 2 2 1 1 1 2 2 3 3 3 3 3 2 2 2 2 1 1 2 2 2
3 2 3 3 1 1 1 3 2 2 2 3 2 2 3 3 3 3 2 1 1 1 2 2 1 1 1 1 2 2 2 3 3 2 2 2 1 2 2 2 2 2 2 3
7 5 4 4 3 1 1 2 3 3 3 3 2 3 2 2 3 3 1 1 1 1 1 2 2 2 2 2 2 2 2 2 2 2 2 2 1 1 1 1 1 1 2 1
5 5 4 3 2 2 3 3 3 3 4 4 4 3 2 2 3 3 2 1 1 0 1 2 2 2 2 2 2 2 2 2 3 3 3 3 2 1 1 1 1 1 1 1
Wind_Direction
232 235 253 261 268 299 305 298 290 283 237 259 219 170 169 161 159 143 144 149 138 137 123 118 114 113 114 123 133 116 84 76 4 1 332 331 334 330 324 315 12 340 316 312
243 235 244 265 285 294 286 281 281 283 247 264 233 199 184 163 144 143 144 131 132 125 123 121 111 98 99 133 139 124 92 61 0 359 321 310 330 314 309 327 326 307 291 281
248 257 248 268 265 270 274 275 289 298 286 257 249 232 198 143 124 128 123 120 120 124 121 123 123 108 104 118 115 74 73 56 360 324 323 342 326 304 331 332 311 299 291 283
258 259 284 276 274 276 283 289 286 279 272 267 247 250 163 132 122 118 118 113 114 117 121 127 124 131 141 108 96 95 84 70 360 322 337 327 330 330 328 322 308 312 296 289
274 272 285 284 296 299 303 314 291 277 274 272 256 253 130 137 130 122 118 111 107 100 95 93 93 93 81 76 89 95 85 58 30 337 342 332 335 328 325 313 300 292 271 256
274 264 268 305 311 296 297 296 285 273 267 259 261 257 158 154 147 141 116 95 90 85 80 71 60 55 59 48 60 81 92 68 14 329 347 334 315 306 302 300 294 296 280 258
263 237 224 289 301 299 306 306 297 289 280 285 289 274 102 108 106 101 89 90 83 76 65 56 42 36 39 26 32 55 76 348 315 315 308 306 299 294 292 306 308 304 303 304
282 269 228 301 310 316 306 299 303 313 309 297 279 114 113 105 85 79 70 72 75 68 56 40 32 37 27 22 22 19 356 294 310 318 320 298 296 302 304 309 303 296 309 300
324 327 315 322 310 301 296 298 316 300 288 283 323 98 109 87 79 70 62 67 62 57 42 29 27 25 25 21 12 348 343 292 292 296 289 283 310 314 313 301 291 300 309 306
321 312 302 289 275 262 284 314 318 305 310 303 320 69 107 91 79 66 47 56 50 48 35 28 32 27 24 14 359 8 1 267 280 303 317 331 312 300 304 306 308 320 326 325
318 301 293 281 283 320 317 321 319 315 319 315 315 50 124 121 87 66 57 50 48 38 34 28 28 24 19 8 10 26 17 5 338 345 346 329 315 322 324 314 323 337 327 320
329 305 298 297 316 321 320 321 320 315 321 316 310 69 99 101 86 63 54 55 48 36 30 29 29 25 16 3 5 22 5 2 4 355 346 325 320 329 328 337 345 344 331 319
337 302 291 271 250 274 297 301 300 293 290 299 302 76 99 79 77 59 43 49 47 34 29 27 30 19 12 2 356 1 354 349 355 1 333 337 341 345 338 339 340 326 316 316
276 273 276 293 308 311 306 301 310 308 300 306 326 351 97 70 62 51 39 40 45 33 26 27 33 22 12 6 357 347 346 344 350 356 352 359 3 346 337 339 328 319 318 323
275 278 281 288 294 294 298 303 306 308 315 314 326 337 26 86 75 69 40 33 32 16 19 27 27 25 21 14 358 352 348 350 353 354 3 11 10 343 342 339 320 324 330 333
258 284 293 288 286 285 287 297 306 313 323 325 321 349 43 68 74 57 32 24 24 11 17 21 25 20 18 9 354 349 344 350 356 360 6 18 14 357 340 327 334 356 357 343
267 277 285 281 295 292 281 301 309 321 350 350 350 16 47 49 35 28 33 20 8 14 18 22 20 16 9 358 351 339 335 340 350 2 358 15 13 350 352 347 2 6 1 345
261 275 272 276 281 274 302 359 5 357 16 15 10 13 40 41 32 61 61 34 4 13 20 23 14 5 2 355 354 345 342 354 1 358 352 4 9 3 5 2 2 1 350 340
228 254 270 274 275 268 240 305 326 338 5 19 7 12 14 21 41 85 60 38 9 19 29 27 12 1 3 358 350 340 336 341 348 354 4 2 347 3 11 352 348 346 348 353
212 215 250 267 277 277 359 38 353 307 162 22 6 11 11 10 333 18 42 24 16 32 29 20 351 352 354 358 343 332 340 347 348 353 354 356 350 346 338 327 325 328 331 308
220 223 238 257 263 268 12 6 324 284 31 14 13 7 4 8 343 4 40 37 39 41 28 14 347 356 6 351 334 334 337 340 339 345 346 344 354 340 303 305 299 312 314 310
251 252 250 258 261 271 18 23 24 39 42 18 14 5 357 2 11 52 37 39 50 33 7 359 358 360 6 336 332 331 336 333 333 338 345 346 353 337 348 320 311 318 306 301
257 279 299 310 317 90 59 61 67 25 354 7 359 357 353 346 353 7 25 26 30 20 2 347 351 346 351 336 329 329 329 328 330 336 345 339 339 355 337 323 340 336 329 326
257 266 273 274 202 147 66 67 45 357 356 352 353 340 339 340 341 348 360 30 19 14 333 321 325 323 319 314 319 321 321 324 319 321 321 315 322 357 356 349 355 355 350 353
312 301 281 273 277 274 67 24 4 357 348 331 315 318 328 333 323 331 356 2 336 325 318 317 311 295 290 296 296 304 310 311 309 298 288 292 292 290 3 349 340 352 18 7
287 295 292 295 328 318 328 352 343 328 316 313 305 302 325 335 325 325 335 338 304 302 302 297 295 290 290 292 297 301 299 309 311 300 292 284 261 221 216 229 224 26 226 272